Flag for Germany Weather past 2 weeks in Herrenberg, Baden-Württemberg, Germany

Now
59 °F

Sleet. Cloudy.


Feels Like: 59 °F
Forecast: 45 / 68 °F
Wind: 2 mph from North

Location: Stuttgart-Echterdingen

Current Time: Oct 1, 2014 at 11:25:32 AM

Latest Report: Oct 1, 2014 at 10:50 AM


Visibility: 1 mi

Pressure: 30.36 "Hg

Humidity: 100%

Dew point: 59 °F

Location of HerrenbergLocation

Historic Weather in Herrenberg — Graph

°F

Herrenberg temperature yesterday

Maximum temperature yesterday: 66 °F (at 2:50 PM)
Minimum temperature yesterday: 57 °F (at 11:50 PM)
Average temperature yesterday: 62 °F

Past Weeks' High & Low Weather Summary

 TemperatureHumidityPressure
High77 °F (Sep 29, 2:50 PM)100% (Sep 17, 3:20 AM)30.39 "Hg (Sep 17, 3:20 AM)
Low39 °F (Sep 24, 3:20 AM)36% (Sep 29, 4:20 PM)29.89 "Hg (Sep 17, 2:50 PM)
Average59 °F83%30.12 "Hg
* Reported Sep 16 10:20 AM — Oct 1 10:20 AM, Herrenberg, Weather by CustomWeather, © 2014

Note: Actual official high and low records may vary slightly from our data, if they occured in-between our weather recording intervals... More about our weather records

Advertising

Herrenberg weather history for previous 24 hours

 ConditionsComfort  
Time TempWeatherWind HumidityBarometerVisibility
10:20 AM
Oct 1
57 °FSleet. Cloudy.2 mph100%30.33 "Hg1 mi
9:50 AM57 °FCool.2 mph100%30.33 "Hg1 mi
9:20 AM57 °FFog.2 mph100%30.33 "Hg1 mi
8:50 AM57 °FPartly sunny.2 mph100%30.33 "Hg1 mi
8:20 AM55 °FFog.2 mph100%30.33 "Hg1 mi
7:50 AM55 °FFog.2 mph100%30.33 "Hg1 mi
7:20 AM55 °FFog.2 mph100%30.30 "Hg1 mi
6:50 AM54 °FFog.2 mph100%30.30 "Hg1 mi
6:20 AM54 °FSleet. Overcast.1 mph100%30.30 "Hg1 mi
5:50 AM54 °FCool.1 mph100%30.30 "Hg1 mi
5:20 AM54 °FSleet. Overcast.No wind100%30.30 "Hg1 mi
4:50 AM54 °FCool.1 mph100%30.30 "Hg1 mi
4:20 AM54 °FFog.1 mph100%30.30 "Hg0 mi
3:50 AM55 °FSleet. Overcast.1 mph100%30.30 "Hg2 mi
3:20 AM55 °FSleet. Overcast.No wind100%30.30 "Hg4 mi
2:50 AM55 °FSleet. Fog.2 mph94%30.30 "Hg4 mi
2:20 AM54 °FSleet. Fog.2 mph100%30.30 "Hg4 mi
1:50 AM55 °FFog.1 mph94%30.30 "Hg4 mi
1:20 AM55 °FFog.1 mph100%30.30 "Hg5 mi
12:50 AM57 °FFog.1 mph94%30.30 "Hg5 mi
12:20 AM57 °FFog.2 mph94%30.30 "Hg6 mi
11:50 PM
Sep 30
57 °FFog.2 mph94%30.33 "HgN/A
11:20 PM59 °FLight fog.3 mph94%30.33 "HgN/A
10:50 PM59 °FLight fog.3 mph88%30.30 "HgN/A
10:20 PM59 °FLight fog.1 mph94%30.30 "HgN/A
9:50 PM59 °FLight fog.1 mph94%30.33 "HgN/A
9:20 PM59 °FLight fog.2 mph88%30.33 "HgN/A
8:50 PM61 °FClear.2 mph94%30.33 "Hg10 mi
8:20 PM61 °FClear.2 mph94%30.30 "Hg10 mi
7:50 PM63 °FBroken clouds.2 mph83%30.30 "HgN/A
7:20 PM63 °FBroken clouds.No wind88%30.30 "HgN/A
6:50 PM64 °FBroken clouds.2 mph83%30.30 "HgN/A
6:20 PM64 °FBroken clouds.3 mph83%30.30 "HgN/A
5:50 PM64 °FBroken clouds.5 mph83%30.30 "HgN/A
5:20 PM64 °FBroken clouds.5 mph88%30.30 "HgN/A
4:50 PM64 °FRain showers. Broken clouds.6 mph88%30.30 "HgN/A
4:20 PM66 °FBroken clouds.5 mph78%30.30 "HgN/A
3:50 PM66 °FBroken clouds.3 mph78%30.30 "HgN/A
3:20 PM66 °FBroken clouds.1 mph78%30.30 "HgN/A
2:50 PM66 °FPartly sunny.2 mph83%30.30 "HgN/A
2:20 PM64 °FPartly sunny.2 mph83%30.30 "HgN/A
1:50 PM64 °FPartly sunny.3 mph83%30.30 "HgN/A
1:20 PM64 °FPartly sunny.3 mph83%30.33 "HgN/A
12:50 PM64 °FPartly sunny.2 mph83%30.33 "HgN/A
12:20 PM63 °FPartly sunny.2 mph88%30.33 "HgN/A
11:50 AM63 °FRain. Partly sunny.2 mph83%30.33 "HgN/A
11:20 AM63 °FPartly sunny.2 mph88%30.33 "HgN/A
Weather by CustomWeather, © 2014

See weather overviewHow to use our weather pages